{"data":{"norad_id":64142,"intl_designator":"2025-111V","name":"STARLINK-34195","alt_names":[],"object_type":"PAYLOAD","status":"ACTIVE","operator":null,"country":"US","launch_date":"2025-05-24","launch_site_code":"AFETR","launch_vehicle":null,"mission":null,"orbit_class":"UNKNOWN","rcs_meters":null,"size_class":null,"mass_kg":null,"dimensions":null,"purposes":["comms"],"wikipedia_slug":null,"has_3d_model":false,"image_url":null,"decayed_at":null,"tle_current":{"epoch":"2026-05-24T23:31:24.598848Z","epoch_age_seconds":76457,"freshness":"FRESH","line1":"1 64142U 25111V   26144.98014582  .00012811  00000+0  47413-3 0  9995","line2":"2 64142  43.0018   6.7948 0001153 267.5519  92.5201 15.27588827 57132","mean_motion":15.27588827,"eccentricity":0.0001153,"inclination_deg":43.0018,"raan_deg":6.7948,"arg_perigee_deg":267.5519,"mean_anomaly_deg":92.5201,"bstar":0.00047413,"rev_number":5713,"period_min":94.266204003861,"perigee_km":482.23157324406,"apogee_km":483.8137566628,"semimajor_km":6861.1596649534,"source":"CELESTRAK","updated_at":"2026-05-25T13:38:20.299875Z"}}}